Location: Bakov nad Jizerou
(50.4784°N, 14.9394°E)
Time: 17:17:17
(UTC+00:00)

Cosmos 2322 - Pass Details

Date: 23 October 2021
Orbit: 841 x 854 km, 71.0° (Epoch: 04 December)

Event Time Altitude Azimuth Distance (km) Brightness Sun altitude
Rises 18:57:55 0° 202° (SSW) 3,410 6.9 -29.9°
Reaches altitude 10° 19:00:21 10° 202° (SSW) 2,478 6.1 -30.3°
Enters shadow 19:00:36 11° 201° (SSW) 2,385 6.0 -30.3°
